INTELSAT 16 (IS-16)

Last updated on Sun Jun 21 2026 00:03:04 GMT+0000 (Coordinated Universal Time)

1 36397U 10006A 26171.37127980 -.00000249 00000+0 00000+0 0 9993 2 36397 0.0099 356.3368 0002056 106.8746 222.8266 1.00272107 59683
UTC large
Height (km)
Speed (km/s)
/
Latitude / Longitude
Inclination (degrees)
Orbital Period (minutes)
Azimuth
Elevation
Range (km)
Doppler Factor

Next 0 passes for location: London (51.5072 / 0.1276)

No passes found over London.
INTELSAT 16 (IS-16)